Regional Weather Roundup
Issued by NWS

Home | Current Version | Previous Version | Graphics & Text | Print | Product List | Glossary Off
Versions: 1 2 3 4 5 6 7 8 9 10 11 12 13 14 15 16 17 18 19 20 21 22 23 24 25 26 27 28 29 30 31 32 33 34 35 36 37 38 39 40 41 42 43 44 45 46 47 48 49 50

000
ASUS43 KDMX 240301
RWRIA

WEATHER ROUNDUP FOR IOWA
NATIONAL WEATHER SERVICE DES MOINES IA
1000 PM CDT MON APR 23 2018

NOTE: "FAIR" INDICATES FEW OR NO CLOUDS BELOW 12,000 FEET WITH NO
SIGNIFICANT WEATHER AND/OR OBSTRUCTIONS TO VISIBILITY.

* - THESE STATIONS ARE NOT NWS STATIONS...THUS NOT UNDER NWS
QUALITY CONTROL.  THEY ALSO DO NOT REPORT WEATHER SUCH
AS PRECIPITATION OR FOG.

IAZ001>003-012>014-020>022-031>034-043>046-240400-
   NORTHWEST IOWA

CITY           SKY/WX    TMP DP  RH WIND       PRES   REMARKS
CARROLL *      PTCLDY    57  41  54 NE9       30.10S
CHEROKEE *     CLEAR     54  43  66 N6        30.13R
DENISON *      CLEAR     55  37  50 NE8       30.12R
LE MARS *      CLEAR     57  41  54 NE13      30.12R
ORANGE CITY *  CLEAR     55  43  62 E6        30.13R
SHELDON *      CLEAR     48  43  81 NE8       30.13R
SIOUX CITY     PTCLDY    58  40  51 E10       30.10R
SPENCER        CLEAR     48  40  73 NE7       30.14R
STORM LAKE *   CLEAR     52  45  76 NE10      30.13R
$$

IAZ055>058-069>071-079>083-090>094-240400-
   SOUTHWEST IOWA

CITY           SKY/WX    TMP DP  RH WIND       PRES   REMARKS
ATLANTIC *     CLEAR     52  30  43 N5        30.09R
AUDUBON *      CLEAR     52  36  54 N3        30.11S
CLARINDA *     CLEAR     52  34  50 CALM      30.09S
COUNCIL BLFS * CLEAR     61  32  33 E9        30.08R
CRESTON *      CLEAR     57  27  30 NE7       30.09S
HARLAN  *      CLEAR     55  34  44 CALM      30.12R
LAMONI         CLEAR     59  29  31 NE5       30.07R
RED OAK *      CLEAR     55  30  38 N3        30.08R
SHENANDOAH *   CLEAR     54  32  43 NE6       30.08R
$$

IAZ047>049-059>061-072>074-084-240400-
   CENTRAL IOWA

CITY           SKY/WX    TMP DP  RH WIND       PRES   REMARKS
AMES           CLEAR     59  36  42 NE9       30.10R
ANKENY *       CLEAR     57  32  38 N7        30.10R
BOONE *        CLEAR     55  39  54 NE9       30.09S
CHARITON *     CLEAR     57  28  33 NE6       30.07R
DES MOINES     CLEAR     62  29  28 NE3       30.09R
GRINNELL*      CLEAR     55  28  34 NE6       30.10R
KNOXVILLE *    CLEAR     59  27  29 NE6       30.07R
MARSHALLTOWN   CLEAR     51  34  52 NE9       30.09R
NEWTON *       CLEAR     57  30  35 NE5       30.09R
PELLA *        CLEAR     58  26  29 CALM      30.09R
$$

IAZ004>006-015-016-023>025-035-036-240400-
   NORTH CENTRAL IOWA

CITY           SKY/WX    TMP DP  RH WIND       PRES   REMARKS
ALGONA *       CLEAR     52  45  76 N6        30.14R
CLARION *      CLEAR     50  43  76 NE7       30.12S
ESTHERVILLE    CLEAR     46  44  93 NW5       30.14R
FORT DODGE *   CLEAR     55  43  63 NE8       30.12S
MASON CITY     CLEAR     49  42  77 N6        30.13
FOREST CITY *  FAIR      48  43  81 CALM      30.13S
WEBSTER CITY * CLEAR     54  43  66 N6        30.09F
IOWA FALLS *   FAIR      56  39  52 N7        30.12S
$$

IAZ007>011-017>019-026>030-037>042-050>054-066-240400-
   NORTHEAST IOWA

CITY           SKY/WX    TMP DP  RH WIND       PRES   REMARKS
CEDAR RAPIDS   FAIR      58  28  32 NE9       30.08R
CHARLES CITY * FAIR      54  39  58 N7        30.12S
CLINTON *      FAIR      52  36  54 E9        30.09R
DECORAH *      FAIR      59  27  29 CALM      30.11R
DUBUQUE        FAIR      52  31  44 NE8       30.11R
MONTICELLO *   FAIR      55  32  41 NE6       30.10R
OELWEIN *      FAIR      54  32  43 NE5       30.12R
WATERLOO       FAIR      47  33  58 CALM      30.10R
$$

IAZ064-065-067-068-078-240400-
   EAST CENTRAL IOWA

CITY           SKY/WX    TMP DP  RH WIND       PRES   REMARKS
DAVENPORT      FAIR      56  32  40 NE9       30.09R
IOWA CITY      FAIR      58  27  30 NE7       30.09R
MT. PLEASANT * CLOUDY    52  30  43 NE8       30.05R
MUSCATINE *    FAIR      61  32  33 NE9       30.07R
QUAD CITIES    FAIR      61  34  36 E9        30.06R
$$

IAZ062-063-075>077-085>089-095>099-240400-
   SOUTHEAST IOWA

CITY           SKY/WX    TMP DP  RH WIND       PRES   REMARKS
BURLINGTON     CLOUDY    62  34  35 NE6       30.03R
FAIRFIELD *    PTCLDY    52  27  37 N10       30.06R
FORT MADISON * CLOUDY    63  36  36 NE3       30.04S
KEOKUK *       CLOUDY    63  34  34 NE6       30.03R
OSKALOOSA *    FAIR      54  25  33 NE7       30.08R
CENTERVILLE *    N/A     54  25  32 CALM      30.08R
OTTUMWA        CLOUDY    56  26  31 NE7       30.07R
WASHINGTON *   PTCLDY    52  28  40 N8        30.08R
$$

ABBREVIATIONS USED IN REMARKS
   TC - TEMPERATURES IN CELSIUS
  WCI - WIND CHILL INDEX
   HX - HEAT INDEX
  VSB - VISIBILITY
$$




USA.gov is the U.S. government's official web portal to all federal, state and local government web resources and services.